[[{"header":{"parameterUnit":"m.s-1","parameterCategory":1,"la1":30.2991,"la2":30.254,"lo1":-89.0895,"lo2":-89.0444,"dy":0.0017,"dx":0.0017,"nx":28,"ny":28,"refTime":"2026-01-05T03:00:00:Z","depth":0,"parameterNumber":2,"parameterNumberName":"U-component_of_WINDS"},"data":[0,0,0,0,0,0,0,0,0,0,0,0,0,0,0,0,0,0,0,0,0,0,0,0,0,0,0,0,0,0,0,0,0,0,0,0,0,0,0,0,0,0,0,0,0,0,0,0,0,0,0,0,0,0,0,0,0,0,-1.1522,-1.1523,0,-1.1616,-1.1617,-1.1618,-1.1611,-1.161,-1.1608,-1.1607,-1.1705,-1.1709,-1.1713,0,0,0,0,0,0,0,0,0,0,0,0,0,-1.134,-1.1343,-1.1522,-1.1523,-1.1524,-1.1615,-1.1617,-1.1618,-1.1611,-1.161,-1.1608,-1.1606,-1.1704,-1.1708,-1.1713,0,0,0,0,0,0,0,0,0,0,0,0,0,-1.1425,-1.1344,-1.1521,-1.1532,-1.1534,-1.1615,-1.1617,-1.1618,-1.1612,-1.161,-1.1608,-1.1606,-1.1702,-1.1708,-1.1714,-1.1792,0,0,-1.1732,-1.1734,0,0,0,0,0,0,0,0,-1.142,-1.1432,-1.1529,-1.1531,-1.1533,-1.1599,-1.1589,-1.1677,-1.1612,-1.1582,-1.1607,-1.1605,-1.1672,-1.168,-1.1702,-1.1796,-1.1801,-1.1732,-1.1736,-1.1738,-1.174,0,0,0,0,0,0,0,-1.1414,-1.1427,-1.1559,-1.153,-1.1533,-1.1533,-1.1542,-1.1605,-1.1638,-1.1585,-1.1584,-1.1595,-1.1672,-1.1697,-1.1704,-1.1802,-1.1732,-1.1737,-1.1741,-1.1743,-1.1968,-1.197,0,0,0,0,0,0,-1.1406,-1.1423,-1.1556,-1.1562,-1.147,-1.1538,-1.1549,-1.158,-1.1637,-1.1643,-1.1597,-1.1595,-1.1688,-1.1698,-1.1708,-1.1805,-1.1738,-1.1744,-1.1747,-1.1966,-1.1968,-1.1971,0,0,0,0,0,0,-1.1402,-1.1418,-1.1552,-1.1492,-1.1509,-1.1543,-1.1579,-1.1583,-1.1607,-1.1646,-1.1652,-1.1616,-1.1686,-1.17,-1.1771,-1.1808,-1.1746,-1.1752,-1.1963,-1.1966,-1.197,-1.1999,0,0,0,0,0,0,-1.1397,-1.1416,-1.1445,-1.1493,-1.1512,-1.1613,-1.1581,-1.1587,-1.1617,-1.1615,-1.1665,-1.1672,-1.1686,-1.1763,-1.1777,-1.1815,-1.1756,-1.1959,-1.1964,-1.1969,-1.1995,-1.2003,-1.201,0,0,0,0,0,-1.139,-1.1449,-1.1447,-1.1463,-1.1549,-1.1615,-1.1627,-1.1641,-1.162,-1.1651,-1.1676,-1.167,-1.1802,-1.177,-1.1786,-1.1827,-1.1957,-1.1963,-1.1968,-1.1991,-1.2001,-1.201,0,0,0,0,0,0,-1.1405,-1.1456,-1.1453,-1.153,-1.1568,-1.1614,-1.1652,-1.1651,-1.1697,-1.1693,-1.171,-1.1721,-1.1794,-1.1817,-1.1781,-1.1907,-1.1877,-1.1886,-1.1889,-1.1899,-1.1906,-1.1899,-1.1761,0,0,0,0,0,-1.1418,-1.1466,-1.1508,-1.1571,-1.1591,-1.1618,-1.1647,-1.1656,-1.1696,-1.1713,-1.1743,-1.1784,-1.1835,-1.1868,-1.1916,-1.1998,-1.201,-1.2034,-1.2041,-1.2047,-1.2055,-1.2103,-1.2114,-1.1989,-1.1989,-1.1989,0,0,-1.1443,-1.1477,-1.1506,-1.1575,-1.1606,-1.1657,-1.1632,-1.1687,-1.1725,-1.1721,-1.1791,-1.1815,-1.1862,-1.194,-1.1975,-1.1961,-1.2093,-1.2054,-1.2059,-1.2064,-1.211,-1.2121,-1.2132,-1.1993,-1.1992,-1.1992,0,0,-1.1517,-1.1546,-1.1603,-1.1635,-1.1682,-1.1701,-1.1714,-1.1761,-1.1777,-1.1847,-1.1846,-1.1893,-1.1979,-1.2013,-1.2042,-1.2131,-1.2128,-1.2146,-1.2187,-1.2232,-1.2242,-1.2251,-1.2285,-1.2296,-1.2154,-1.2154,-1.2154,0,-1.1543,-1.1619,-1.1633,-1.1689,-1.172,-1.1719,-1.1778,-1.1808,-1.1869,-1.1891,-1.1875,-1.1985,-1.2016,-1.2103,-1.2125,-1.2147,-1.2165,-1.2141,-1.224,-1.2249,-1.2257,-1.229,-1.2302,-1.2156,-1.2156,-1.2155,-1.2155,0,-1.165,-1.1703,-1.1744,-1.1803,-1.1839,-1.1896,-1.192,-1.1955,-1.196,-1.1981,-1.2054,-1.2091,-1.2149,-1.217,-1.2175,-1.2258,-1.2249,-1.2236,-1.2206,-1.2271,-1.2302,-1.2314,-1.2159,-1.2158,-1.2157,-1.2157,0,0,-1.1735,-1.1802,-1.1817,-1.1845,-1.1898,-1.194,-1.1998,-1.2054,-1.2084,-1.2127,-1.2177,-1.2251,-1.2241,-1.2273,-1.2283,-1.2323,-1.2394,-1.2306,-1.2307,-1.2322,-1.249,-1.25,-1.2514,-1.2392,-1.2394,-1.2396,-1.2487,0,-1.1815,-1.1917,-1.1933,-1.2023,-1.2074,-1.2074,-1.2125,-1.2164,-1.2185,-1.2232,-1.2256,-1.2309,-1.229,-1.231,-1.2349,-1.2377,-1.2428,-1.237,-1.2441,-1.2443,-1.243,-1.253,-1.2541,-1.2624,-1.2499,-1.2501,-1.2502,0,-1.1922,-1.1968,-1.2063,-1.2112,-1.2134,-1.2179,-1.2233,-1.2277,-1.2322,-1.2335,-1.2372,-1.2378,-1.244,-1.2407,-1.2494,-1.2455,-1.2484,-1.2502,-1.2506,-1.2514,-1.2477,-1.2542,-1.2651,-1.2664,-1.2521,-1.2519,-1.2518,0,-1.1976,-1.2062,-1.2131,-1.2155,-1.2212,-1.2245,-1.227,-1.2313,-1.2346,-1.2394,-1.2416,-1.247,-1.25,-1.2543,-1.2563,-1.2537,-1.265,-1.2618,-1.2664,-1.2663,-1.2688,-1.2686,-1.2805,-1.2705,-1.2705,-1.2704,-1.2704,0,-1.2065,-1.2124,-1.2157,-1.2199,-1.2266,-1.2284,-1.235,-1.2375,-1.2413,-1.2462,-1.2466,-1.2512,-1.2535,-1.2585,-1.2602,-1.2673,-1.2686,-1.2699,-1.2703,-1.27,-1.2698,-1.272,-1.2715,-1.2708,-1.2707,-1.2706,-1.2706,0,-1.2137,-1.2161,-1.2237,-1.2286,-1.2299,-1.2347,-1.2389,-1.2432,-1.2453,-1.2515,-1.253,-1.2565,-1.2624,-1.2648,-1.2721,-1.2732,-1.2814,-1.2813,-1.2799,-1.28,-1.2845,-1.2841,-1.2983,-1.3003,-1.2888,-1.2889,-1.289,0,-1.2192,-1.2238,-1.2292,-1.2325,-1.2352,-1.2404,-1.2439,-1.2459,-1.2495,-1.2551,-1.2587,-1.2646,-1.2694,-1.2789,-1.2821,-1.2877,-1.2879,-1.2924,-1.2887,-1.2883,-1.2882,-1.2879,-1.2885,-1.2932,-1.2933,-1.2934,-1.2934,0,-1.2289,-1.2299,-1.2348,-1.2403,-1.2444,-1.2488,-1.2531,-1.2558,-1.2584,-1.2625,-1.2686,-1.2723,-1.2798,-1.2858,-1.2916,-1.2944,-1.2945,-1.2946,-1.296,-1.2957,-1.2948,-1.2956,-1.2819,-1.2943,-1.2942,-1.2941,-1.2941,-1.294,-1.2355,-1.2397,-1.2442,-1.2498,-1.2532,-1.2573,-1.2616,-1.2643,-1.2694,-1.2756,-1.2765,-1.283,-1.2877,-1.2955,-1.2986,-1.3038,-1.3027,-1.3046,-1.3051,-1.3056,-1.306,-1.2939,-1.3049,-1.3048,-1.3048,-1.3048,-1.3048,0,-1.2453,-1.2483,-1.2534,-1.2594,-1.2639,-1.2635,-1.2683,-1.2721,-1.2778,-1.2821,-1.2869,-1.294,-1.2998,-1.3036,-1.3095,-1.313,-1.3132,-1.3145,-1.3143,-1.315,-1.3066,-1.3049,-1.3143,-1.3143,-1.3143,-1.3143,-1.3142,-1.3142,-1.2509,-1.258,-1.2596,-1.2685,-1.2715,-1.2779,-1.2807,-1.2845,-1.288,-1.2959,-1.3007,-1.3031,-1.3073,-1.3135,-1.3189,-1.3199,-1.3221,-1.3236,-1.3245,-1.3166,-1.3156,-1.3146,-1.3131,-1.324,-1.324,-1.3325,-1.3326,-1.3326]},{"header":{"parameterUnit":"m.s-1","parameterCategory":1,"la1":30.2991,"la2":30.254,"lo1":-89.0895,"lo2":-89.0444,"dy":0.0017,"dx":0.0017,"nx":28,"ny":28,"refTime":"2026-01-05T03:00:00:Z","depth":0,"parameterNumber":3,"parameterNumberName":"V-component_of_WINDS"},"data":[0,0,0,0,0,0,0,0,0,0,0,0,0,0,0,0,0,0,0,0,0,0,0,0,0,0,0,0,0,0,0,0,0,0,0,0,0,0,0,0,0,0,0,0,0,0,0,0,0,0,0,0,0,0,0,0,0,0,0.6936,0.6937,0,0.6977,0.6978,0.6978,0.7008,0.7008,0.7008,0.7009,0.7049,0.705,0.7051,0,0,0,0,0,0,0,0,0,0,0,0,0,0.6882,0.6883,0.6936,0.6937,0.6937,0.6977,0.6978,0.6978,0.7008,0.7008,0.7008,0.7009,0.7049,0.705,0.7051,0,0,0,0,0,0,0,0,0,0,0,0,0,0.6913,0.6883,0.6936,0.6957,0.6959,0.6977,0.6978,0.6978,0.7008,0.7008,0.7009,0.7009,0.7048,0.705,0.7051,0.7051,0,0,0.7055,0.7055,0,0,0,0,0,0,0,0,0.6911,0.6915,0.6953,0.6955,0.6958,0.6988,0.6974,0.7003,0.7008,0.6989,0.7009,0.7009,0.7028,0.7031,0.7038,0.7053,0.7055,0.7055,0.7056,0.7056,0.7057,0,0,0,0,0,0,0,0.6909,0.6913,0.6952,0.6954,0.6957,0.6964,0.6968,0.6979,0.7006,0.6991,0.6993,0.6998,0.703,0.7037,0.7039,0.7055,0.7055,0.7056,0.7057,0.7057,0.7072,0.7072,0,0,0,0,0,0,0.6904,0.6911,0.6951,0.6954,0.6935,0.6964,0.697,0.6978,0.7006,0.7011,0.6997,0.6999,0.7034,0.7038,0.7041,0.7043,0.7056,0.7057,0.7058,0.7073,0.7072,0.7072,0,0,0,0,0,0,0.6902,0.6907,0.6949,0.6933,0.6939,0.6965,0.6974,0.6978,0.6986,0.7011,0.7016,0.7,0.7035,0.7039,0.7048,0.7044,0.7058,0.7059,0.7073,0.7072,0.7072,0.7046,0,0,0,0,0,0,0.6901,0.6906,0.6907,0.6933,0.694,0.6956,0.6974,0.6979,0.6988,0.699,0.7014,0.7019,0.7035,0.7046,0.705,0.7046,0.706,0.7073,0.7073,0.7072,0.7047,0.7045,0.7042,0,0,0,0,0,0.6899,0.6897,0.6907,0.6911,0.6941,0.6956,0.696,0.698,0.6987,0.6988,0.7004,0.7018,0.7044,0.7047,0.7051,0.7048,0.7074,0.7073,0.7072,0.7048,0.7045,0.7042,0,0,0,0,0,0,0.687,0.6901,0.6912,0.6919,0.6935,0.6961,0.6962,0.6976,0.6989,0.6991,0.7014,0.702,0.7026,0.7038,0.7041,0.705,0.7061,0.7061,0.7041,0.7039,0.7036,0.7033,0.7061,0,0,0,0,0,0.6864,0.6875,0.6901,0.6905,0.6913,0.6936,0.6944,0.6958,0.6975,0.6981,0.6998,0.7014,0.7026,0.7033,0.7045,0.705,0.7055,0.7049,0.7047,0.7045,0.7044,0.7047,0.7045,0.7069,0.7069,0.7069,0,0,0.6853,0.6872,0.6876,0.69,0.6914,0.6923,0.6942,0.6951,0.6958,0.6982,0.6992,0.7005,0.7024,0.7031,0.7035,0.7041,0.7039,0.7044,0.7042,0.7043,0.7046,0.7044,0.7042,0.7069,0.7069,0.7069,0,0,0.6837,0.6852,0.6857,0.6871,0.6892,0.6908,0.6909,0.6933,0.6943,0.6954,0.6972,0.6981,0.7001,0.7014,0.7023,0.7012,0.7025,0.7016,0.7002,0.7005,0.7003,0.7001,0.6997,0.6995,0.7015,0.7015,0.7015,0,0.682,0.6836,0.6858,0.6866,0.6876,0.6899,0.6904,0.6916,0.694,0.6946,0.6953,0.6978,0.6993,0.7003,0.7,0.7007,0.7009,0.7013,0.7002,0.7,0.6999,0.6995,0.6994,0.7014,0.7014,0.7014,0.7014,0,0.6814,0.6825,0.6826,0.6849,0.6859,0.6865,0.6888,0.6895,0.6908,0.6923,0.6934,0.6952,0.6968,0.6972,0.6984,0.6984,0.6987,0.6997,0.7009,0.6995,0.6992,0.6991,0.7012,0.7012,0.7013,0.7013,0,0,0.678,0.6816,0.6816,0.6826,0.6851,0.686,0.6867,0.6884,0.689,0.6905,0.6912,0.6929,0.6939,0.6949,0.6964,0.6966,0.6956,0.6976,0.6977,0.6971,0.6955,0.6947,0.6945,0.6965,0.6965,0.6965,0.6954,0,0.6768,0.6783,0.6803,0.6812,0.6821,0.6844,0.6851,0.6866,0.6881,0.6891,0.6906,0.6918,0.693,0.6937,0.694,0.6956,0.6953,0.6958,0.6971,0.6971,0.6964,0.6943,0.6934,0.6923,0.6953,0.6952,0.6952,0,0.6755,0.677,0.678,0.6804,0.6809,0.6814,0.6831,0.6841,0.6859,0.687,0.6881,0.6897,0.6906,0.6917,0.6929,0.6932,0.6938,0.6947,0.6947,0.6949,0.696,0.6943,0.692,0.6918,0.6951,0.6951,0.6951,0,0.6729,0.6752,0.676,0.6769,0.6797,0.6801,0.6813,0.6832,0.6841,0.6855,0.6861,0.6876,0.6884,0.6896,0.6915,0.6922,0.6925,0.6938,0.6933,0.6933,0.6932,0.6932,0.6908,0.6938,0.6938,0.6938,0.6938,0,0.6713,0.6717,0.6749,0.6754,0.676,0.6783,0.6788,0.6802,0.6819,0.6827,0.6847,0.6854,0.688,0.689,0.6905,0.6912,0.6916,0.6924,0.6928,0.6922,0.6921,0.6926,0.6927,0.6937,0.6937,0.6937,0.6937,0,0.6684,0.6705,0.6716,0.6743,0.675,0.6753,0.6775,0.6781,0.6797,0.6806,0.681,0.6834,0.6847,0.6868,0.6887,0.6897,0.6901,0.6908,0.6895,0.6897,0.6891,0.6891,0.687,0.6868,0.6899,0.6898,0.6898,0,0.6672,0.6676,0.6703,0.671,0.6722,0.6733,0.6742,0.6765,0.6774,0.6795,0.6798,0.6813,0.6825,0.6845,0.6864,0.6878,0.6885,0.6877,0.6887,0.6881,0.6884,0.6883,0.6884,0.6874,0.6873,0.6873,0.6873,0,0.6647,0.6658,0.6671,0.6687,0.6697,0.6711,0.6726,0.6731,0.6757,0.6766,0.6779,0.6789,0.6809,0.6822,0.684,0.6852,0.6866,0.6869,0.6869,0.6862,0.6854,0.6858,0.6887,0.6869,0.687,0.687,0.687,0.687,0.6626,0.6631,0.6651,0.6664,0.6678,0.6692,0.6698,0.6715,0.6727,0.6745,0.6758,0.677,0.6789,0.6813,0.6825,0.6835,0.6841,0.6841,0.684,0.684,0.6837,0.6853,0.6838,0.6838,0.6838,0.6838,0.6838,0,0.6602,0.6616,0.6629,0.6649,0.666,0.6674,0.6691,0.6699,0.6709,0.6726,0.6738,0.6754,0.6767,0.6788,0.6803,0.6807,0.6814,0.681,0.6809,0.6812,0.6831,0.6829,0.6804,0.6804,0.6804,0.6804,0.6804,0.6804,0.6591,0.66,0.6613,0.6628,0.6643,0.6655,0.6664,0.6676,0.669,0.6706,0.6718,0.6731,0.6749,0.6766,0.6779,0.6785,0.6789,0.6783,0.679,0.6807,0.681,0.6813,0.6812,0.6784,0.6784,0.677,0.677,0.677]}]]